Flag for Sweden Weather past 2 weeks in Örebro, Sweden

Now
68 °F

Mild.


Feels Like: 68 °F
Forecast: 48 / 72 °F
Wind: 9 mph from Southwest

Location: Orebro Private

Current Time: Aug 3, 2015 at 12:39:48 PM

Latest Report: Aug 3, 2015 at 12:20 PM


Visibility: N/A

Pressure: 30.15 "Hg

Humidity: 56%

Dew point: 52 °F

Location of ÖrebroLocation

Historic Weather in Örebro — Graph

°F

Örebro temperature yesterday

Maximum temperature yesterday: 68 °F (at 4:50 PM)
Minimum temperature yesterday: 52 °F (at 12:50 AM)
Average temperature yesterday: 59 °F

Past Weeks' High & Low Weather Summary

 TemperatureHumidityPressure
High70 °F (Jul 22, 3:50 PM)100% (Jul 21, 6:20 PM)30.15 "Hg (Jul 21, 6:20 PM)
Low48 °F (Aug 3, 3:20 AM)49% (Jul 23, 3:50 PM)29.30 "Hg (Jul 26, 2:50 PM)
Average59 °F84%29.68 "Hg
* Reported Jul 19 11:20 AM — Aug 3 11:20 AM, Örebro, Weather by CustomWeather, © 2015

Note: Actual official high and low records may vary slightly from our data, if they occured in-between our weather recording intervals... More about our weather records

Advertising

Örebro weather history for previous 24 hours

 ConditionsComfort  
Time TempWeatherWind HumidityBarometerVisibility
11:20 AM
Mon, Aug 3
64 °FPassing clouds.5 mph68%30.15 "HgN/A
10:50 AM64 °FScattered clouds.6 mph68%30.15 "HgN/A
10:20 AM63 °FScattered clouds.3 mph68%30.15 "HgN/A
9:50 AM63 °FScattered clouds.3 mph73%30.15 "HgN/A
9:20 AM61 °FCool.3 mph77%30.12 "HgN/A
8:50 AM59 °FCool.5 mph88%30.12 "HgN/A
8:20 AM57 °FCool.6 mph94%30.12 "HgN/A
7:50 AM57 °FCool.5 mph94%30.12 "HgN/A
7:20 AM55 °FSunny.3 mph94%30.12 "Hg10 mi
6:50 AM54 °FPassing clouds.3 mph94%30.12 "HgN/A
6:20 AM52 °FLight fog.5 mph100%30.12 "Hg5 mi
5:50 AM48 °FLight fog.7 mph100%30.09 "Hg2 mi
5:20 AM48 °FLight fog.5 mph94%30.09 "Hg4 mi
4:50 AM48 °FFog.7 mph100%30.09 "Hg3 mi
4:20 AM48 °FFog.6 mph100%30.09 "Hg6 mi
3:50 AM48 °FClear.8 mph100%30.09 "Hg10 mi
3:20 AM48 °FLight fog.5 mph94%30.09 "Hg0 mi
2:50 AM50 °FLight fog.5 mph94%30.09 "Hg0 mi
2:20 AM52 °FPassing clouds.5 mph94%30.07 "HgN/A
1:50 AM52 °FClear.7 mph94%30.07 "Hg10 mi
1:20 AM54 °FCool.9 mph94%30.07 "HgN/A
12:50 AM52 °FCool.8 mph100%30.07 "HgN/A
12:20 AM50 °FClear.8 mph100%30.07 "Hg10 mi
11:20 PM
Sun, Aug 2
52 °FLight fog.5 mph100%30.07 "Hg1 mi
10:50 PM52 °FLight fog.5 mph94%30.07 "Hg0 mi
10:20 PM52 °FFog.2 mph94%30.07 "Hg2 mi
9:50 PM54 °FCool.5 mph94%30.04 "HgN/A
9:20 PM55 °FCool.6 mph88%30.04 "HgN/A
8:50 PM57 °FPassing clouds.7 mph82%30.04 "HgN/A
8:20 PM61 °FHeavy rain. Scattered clouds.12 mph77%30.04 "HgN/A
7:50 PM63 °FMild.13 mph68%30.01 "HgN/A
7:20 PM64 °FPassing clouds.14 mph64%30.01 "HgN/A
6:50 PM64 °FPassing clouds.17 mph60%30.01 "HgN/A
6:20 PM66 °FPassing clouds.16 mph56%30.01 "HgN/A
5:50 PM66 °FSunny.16 mph56%30.01 "Hg10 mi
5:20 PM66 °FSunny.15 mph56%30.01 "Hg10 mi
4:50 PM68 °FPassing clouds.15 mph60%30.01 "HgN/A
4:20 PM66 °FPassing clouds.15 mph60%30.01 "HgN/A
3:50 PM66 °FPassing clouds.18 mph60%30.01 "HgN/A
3:20 PM66 °FPassing clouds.16 mph56%30.01 "HgN/A
2:50 PM66 °FPassing clouds.15 mph60%30.01 "HgN/A
2:20 PM66 °FPassing clouds.16 mph64%30.01 "HgN/A
1:50 PM64 °FPassing clouds.13 mph64%30.01 "HgN/A
1:20 PM64 °FPassing clouds.15 mph64%30.01 "HgN/A
12:50 PM64 °FBroken clouds.15 mph64%30.01 "HgN/A
12:20 PM66 °FScattered clouds.17 mph60%30.01 "HgN/A
Weather by CustomWeather, © 2015

See weather overviewHow to use our weather pages